TimeMST,TemperatureF,Dew PointF,Humidity,Sea Level PressureIn,VisibilityMPH,Wind Direction,Wind SpeedMPH,Gust SpeedMPH,PrecipitationIn,Events,Conditions,WindDirDegrees,DateUTC
12:55 AM,24.1,21.9,91,30.25,10.0,West,6.9,-,N/A,,Clear,260,2012-11-14 07:55:00
1:55 AM,23.0,19.9,88,30.25,10.0,Calm,Calm,-,N/A,,Clear,0,2012-11-14 08:55:00
2:55 AM,26.1,23.0,88,30.23,10.0,Calm,Calm,-,N/A,,Clear,0,2012-11-14 09:55:00
3:55 AM,25.0,21.9,88,30.22,10.0,Calm,Calm,-,N/A,,Scattered Clouds,0,2012-11-14 10:55:00
4:55 AM,24.1,21.9,91,30.22,10.0,Calm,Calm,-,N/A,,Clear,0,2012-11-14 11:55:00
5:55 AM,23.0,21.0,92,30.21,10.0,East,3.5,-,N/A,,Clear,90,2012-11-14 12:55:00
6:55 AM,24.1,21.0,88,30.20,10.0,Calm,Calm,-,N/A,,Clear,0,2012-11-14 13:55:00
7:55 AM,26.1,23.0,88,30.20,10.0,Calm,Calm,-,N/A,,Clear,0,2012-11-14 14:55:00
8:55 AM,32.0,27.0,82,30.19,10.0,West,4.6,-,N/A,,Clear,270,2012-11-14 15:55:00
10:55 AM,41.0,30.9,67,30.14,10.0,WSW,6.9,-,N/A,,Clear,250,2012-11-14 17:55:00
11:55 AM,45.0,30.9,58,30.12,10.0,West,8.1,-,N/A,,Clear,260,2012-11-14 18:55:00
12:55 PM,45.0,30.9,58,30.11,10.0,WSW,6.9,-,N/A,,Clear,250,2012-11-14 19:55:00
1:55 PM,46.0,30.9,56,30.10,10.0,West,8.1,-,N/A,,Clear,260,2012-11-14 20:55:00
2:55 PM,45.0,30.9,58,30.10,10.0,West,5.8,-,N/A,,Clear,260,2012-11-14 21:55:00
3:55 PM,41.0,30.9,67,30.11,10.0,Calm,Calm,-,N/A,,Clear,0,2012-11-14 22:55:00
4:55 PM,37.9,30.0,73,30.12,10.0,Calm,Calm,-,N/A,,Clear,0,2012-11-14 23:55:00
5:55 PM,35.1,28.9,78,30.14,10.0,Calm,Calm,-,N/A,,Partly Cloudy,0,2012-11-15 00:55:00
6:55 PM,34.0,28.9,82,30.15,10.0,WNW,4.6,-,N/A,,Scattered Clouds,300,2012-11-15 01:55:00
7:55 PM,33.1,28.9,85,30.16,10.0,WNW,4.6,-,N/A,,Scattered Clouds,290,2012-11-15 02:55:00
8:55 PM,33.1,30.0,89,30.18,10.0,West,5.8,-,N/A,,Overcast,280,2012-11-15 03:55:00
9:55 PM,34.0,30.0,85,30.18,10.0,West,6.9,-,N/A,,Overcast,260,2012-11-15 04:55:00
10:55 PM,32.0,28.9,88,30.20,10.0,Calm,Calm,-,N/A,,Mostly Cloudy,0,2012-11-15 05:55:00
11:55 PM,32.0,28.0,85,30.22,10.0,West,3.5,-,N/A,,Clear,260,2012-11-15 06:55:00